This is the latest recevied weather packets stored in our database for station/object KD8OUK. If no packets are shown the sender has not sent any weather packets the latest 10 day(s).
| Time | Temp. | Humidity | Pressure | Rain* | Wind** | Luminosity | Snow |
|---|---|---|---|---|---|---|---|
| 1777908619 | 18.89° C | 63% | 1008.6 hPa | 0 mm | - | - | - |
| 1777908328 | 18.33° C | 64% | 1008.7 hPa | 0 mm | - | - | - |
| 1777908020 | 17.78° C | 65% | 1008.7 hPa | 0 mm | - | - | - |
| 1777907730 | 17.78° C | 65% | 1008.8 hPa | 0 mm | - | - | - |
| 1777907425 | 17.22° C | 67% | 1008.8 hPa | 0 mm | - | - | - |
| 1777907115 | 16.67° C | 68% | 1008.8 hPa | 0 mm | - | - | - |
| 1777906825 | 16.11° C | 69% | 1008.8 hPa | 0 mm | - | - | - |
| 1777906517 | 16.11° C | 70% | 1008.8 hPa | 0 mm | - | - | - |
| 1777906227 | 15.56° C | 70% | 1008.8 hPa | 0 mm | - | - | - |
| 1777905919 | 16.11° C | 71% | 1008.7 hPa | 0 mm | - | - | - |
| 1777905630 | 15.56° C | 71% | 1008.7 hPa | 0 mm | - | - | - |
| 1777905322 | 15° C | 72% | 1008.9 hPa | 0 mm | - | - | - |
| 1777905026 | 15° C | 72% | 1008.9 hPa | 0 mm | - | - | - |
| 1777904725 | 15° C | 73% | 1009 hPa | 0 mm | - | - | - |
| 1777904423 | 15° C | 73% | 1009 hPa | 0 mm | - | - | - |
| 1777904121 | 14.44° C | 73% | 1009 hPa | 0 mm | - | - | - |
| 1777903819 | 14.44° C | 73% | 1008.9 hPa | 0 mm | - | - | - |
| 1777903517 | 14.44° C | 74% | 1008.9 hPa | 0 mm | - | - | - |
| 1777903234 | 13.89° C | 74% | 1009 hPa | 0 mm | - | - | - |
| 1777902925 | 13.89° C | 74% | 1009 hPa | 0 mm | - | - | - |
| 1777902617 | 13.89° C | 73% | 1009.1 hPa | 0 mm | - | - | - |
| 1777902327 | 13.89° C | 74% | 1009.3 hPa | 0 mm | - | - | - |
| 1777902019 | 13.33° C | 74% | 1009.3 hPa | 0 mm | - | - | - |
| 1777901730 | 13.33° C | 74% | 1009.3 hPa | 0 mm | - | - | - |
| 1777901418 | 13.33° C | 74% | 1009.3 hPa | 0 mm | - | - | - |
* Rain latest hour (hover to see other rain measurements)
** Current wind speed in m/s (hover to see current wind gust speed)